Regional Weather Roundup
Issued by NWS Wakefield, VA

Home | Current Version | Previous Version | Text Only | Print | Product List | Glossary On
Versions: 1 2 3 4 5 6 7 8 9 10 11 12 13 14 15 16 17 18 19 20 21 22 23 24 25 26 27 28 29 30 31 32 33 34 35 36 37 38 39 40 41 42 43 44 45 46 47 48 49 50
034
ASUS41 KAKQ 060815
RWRAKQ

REGIONAL WEATHER ROUNDUP
NATIONAL WEATHER SERVICE WAKEFIELD VA
300 AM EST TUE DEC 06 2016

Note: "fair" indicates few or no clouds below 12,000 feet with no
significant weather and/or obstructions to visibility. * = Denotes
station may not report precipitation (e.g., rain,snow,etc.),
thunder or fog.

VAZ042-051-052>054-056-060900-
NORTHERN VIRGINIA

CITY           SKY/WX    TMP DP  RH WIND       PRES   REMARKS
WASH NATIONAL  CLOUDY    44  33  65 NE7       30.14R
DULLES         CLOUDY    41  30  65 CALM      30.13R
FORT BELVOIR   CLOUDY    43  30  60 CALM      30.13R
QUANTICO       PTCLDY    46  34  62 NE10      30.14R
FREDERICKSBRG* CLOUDY    44  36  72 CALM      30.13R
STAFFORD*      PTCLDY    42  33  70 CALM      30.16S
WARRENTON      PTCLDY    41  31  68 CALM      30.12R
CULPEPER*      CLOUDY    41  35  78 CALM      30.13S
MANASSAS*      CLOUDY    39  36  87 N5        30.13R
LEESBURG*      MOCLDY    37  36  93 MISG      30.14R
WINCHESTER     CLOUDY    32  30  93 CALM      30.11S
FRONT ROYAL*   FAIR      37  32  81 CALM      30.11R
LURAY*         FAIR      41  32  70 N6        30.09S
$$

VAZ048-049-060>072-079>083-060900-
CENTRAL AND SOUTH CENTRAL VIRGINIA

CITY           SKY/WX    TMP DP  RH WIND       PRES   REMARKS
RICHMOND       CLOUDY    44  41  89 CALM      30.11S
CHESTERFIELD*  CLOUDY    45  30  57 CALM      30.12S
PETERSBURG*    LGT RAIN  44  42  95 CALM      30.11F
HANOVER        CLOUDY    42  40  92 CALM      30.13S FOG
TAPPAHANNOCK*  CLOUDY    43  43 100 CALM      30.13R
QUINTON*       CLOUDY    42  42 100 CALM      30.12R
CHARLOTTSVILLE MOCLDY    44  35  70 NE3       30.10S
GORDONSVILLE*  FAIR      42  36  80 E3        30.11S
ORANGE*          N/A     43  34  70 CALM      30.13S
LOUISA*        CLOUDY    46  39  76 NE3       30.11R
BUMPASS*       FAIR      42  39  91 CALM      30.12R
FARMVILLE*     CLOUDY    45  44  97 N3        30.08F
CREWE*         PTSUNNY   43  43 100 CALM      30.08F
FORT PICKETT*  PTSUNNY  N/A N/A N/A E3        30.08F
CHASE CITY*    FAIR      45  44  95 E3        30.06F
CLARKSVILLE*   PTSUNNY   46  46 100 E3        30.05F
SOUTH HILL*    CLOUDY    44  44  99 CALM      30.14F
LAWRENCEVILLE* FAIR      44  44  97 E3        30.09F
EMPORIA*       FLURRIES  45  43  93 CALM      30.12S
$$

VAZ088>098-060900-
SOUTHEAST VIRGINIA

CITY           SKY/WX    TMP DP  RH WIND       PRES   REMARKS
NORFOLK        CLOUDY    50  42  74 NE9       30.10R
VIRGINIA BEACH CLOUDY    50  40  68 NE5       30.09R
NORFOLK NAVAL  LGT RAIN  50  44  80 NE6       30.12R
WEST POINT*    MOCLDY    42  42  99 CALM      30.14R
SALUDA*        FAIR      46  41  83 NE3       30.12R
NEWPORT NEWS   CLOUDY    46  44  93 NE3       30.11R
LANGLEY AFB    CLOUDY    48  44  84 NE6       30.10R
FORT EUSTIS    CLOUDY    46  42  86 CALM      30.09R
WILLIAMSBURG*  CLOUDY    46  46 100 CALM      30.13R
HR EXEC AP*    CLOUDY    45  43  93 CALM      30.09R
FRANKLIN*      CLOUDY    45  43  94 CALM      30.11S
US460-WAKEFLD  CLOUDY    45  44  97 CALM      30.11R
$$

VAZ020-022-025-037-045-060900-
WEST CENTRAL AND SOUTHWEST VIRGINIA

CITY           SKY/WX    TMP DP  RH WIND       PRES   REMARKS
STAUNTON*      CLOUDY    39  34  83 CALM      30.08F
WAYNESBORO*    CLOUDY    42  33  73 E5        30.06F
HOT SPRINGS VA NOT AVBL
LYNCHBURG      CLOUDY    45  42  89 NE3       30.08S
DANVILLE       CLOUDY    46  46 100 E5        30.02F
SOUTH BOSTON*  FAIR      45  44  95 CALM      30.06F
MARTINSVILLE   CLOUDY    46  44  93 CALM      30.05F
ROANOKE        CLOUDY    46  43  89 E7        30.06S
BLACKSBURG     DRIZZLE   44  42  93 SE6       30.04F
DUBLIN*        LGT RAIN  45  42  92 E5        30.01F
MARION*        LGT RAIN  43  39  86 E12G22    29.97F
HILLSVILLE*    RAIN      41  40  97 SE5       29.96F
RICHLANDS*     CLOUDY    43  20  39 SE20G33   29.86F
WISE*          LGT RAIN  46  41  81 SE10G20   29.83F
ABINGDON*      LGT RAIN  47  43  85 E16       29.89R
$$

MDZ021>025-VAZ099-100-060900-
SOUTHERN MARYLAND AND THE DELMARVA PENINSULA

CITY           SKY/WX    TMP DP  RH WIND       PRES   REMARKS
PATUXENT RIVER PTCLDY    44  33  65 NE13      30.12R
BAY BRIDGE APT NOT AVBL
LEONARDTOWN    CLOUDY    43  34  70 NE3       30.13S
DOVER          MOCLDY    38  37  94 N7        30.11F
GEORGETOWN     CLOUDY    42  34  73 N6        30.12S
EASTON         CLOUDY    41  33  74 NE3       30.16R
CAMBRIDGE      NOT AVBL
SALISBURY      PTCLDY    42  35  76 N5        30.12R
OCEAN CITY     PTCLDY    46  35  65 N9        30.12R
WALLOPS ISLAND MOCLDY    43  38  82 N7        30.11R
ACCOMACK*      PTCLDY    42  40  93 CALM      30.10F
$$

NCZ012>017-030>032-060900-
NORTH CENTRAL AND EASTERN NORTH CAROLINA

CITY           SKY/WX    TMP DP  RH WIND       PRES   REMARKS
ROANOKE RAPIDS NOT AVBL
RALEIGH        LGT RAIN  47  44  90 E14       30.01F
ELIZABETH CITY LGT RAIN  48  45  89 NW3       30.11R
AHOSKIE*       NOT AVBL
EDENTON*       NOT AVBL
CURRITUCK*     NOT AVBL
KILL DEVIL HLS NOT AVBL
MANTEO         NOT AVBL
CAPE HATTERAS  LGT RAIN  52  50  93 NE7       30.05S
TARBORO*       NOT AVBL
GOLDSBORO      LGT RAIN  48  48 100 NE7       30.03F
WASHINGTON     NOT AVBL
GREENVILLE     NOT AVBL
NEW BERN       RAIN      48  45  89 NE7       30.06S
WILMINGTON     RAIN      47  47 100 N13       30.01F FOG
$$

VAZ048-060900-
ELSEWHERE

CITY           SKY/WX    TMP DP  RH WIND       PRES   REMARKS
HARRISBURG PA  MOCLDY    31  30  96 CALM      30.13F
BALTIMORE      CLOUDY    42  31  64 CALM      30.12S
ANNAPOLIS      CLOUDY    45  34  65 N6        30.12S
ANDREWS AFB    CLOUDY    40  31  70 NE5       30.12R
PHILADELPHIA   MOCLDY    39  30  70 N7        30.15R
GREENSBORO     CLOUDY    46  44  93 E9        29.98F
ROCKY MOUNT    LGT RAIN  46  46 100 NE5       30.07F
$$

VAZ100-060900-
MARINE

STATION/POSITION TIME  TEMP    WIND        PRES    WAVE   SWELL
                       AIR SEA DIR/SP/G            HT/PER HT/PER
                 (UTC) (F)     (DEG/KT/KT) (MB)    (FT/S) (FT/S)
BRANDYWINE LGT   0748   44      20/ 16/ 18   N/A
CAPE MAY NJ      0748   43 48   20/  3/  6 1019.3F
LEWES DE         0748   46 48   30/ 17/ 20 1019.4F
OCEAN-CITY-INLET 0748   47 50   30/  7/ 12 1020.0R
WACHAPREAGUE VA  0748   45 49   10/  5/  7 1019.2F
THOMAS POINT MD  0800   45 49   30/ 15/ 17   N/A
GOOSES REEF MD   0800   46 50   70/ 14/ 17 1020.7    2/ 3
COVE POINT MD    0748   45      40/ 14/ 16 1020.6R
SOLOMONS ISLAND  0748   45 51   30/  8/ 10   N/A
BISHOPS HEAD MD  0748   44 46   40/  9/ 11 1020.0R
PINEY POINT MD   0748           70/  5/  6   N/A
POTOMAC MD       0800   46 51   50/ 12/ 16 1018.9    1/ 2
CAMBRIDGE MD     0748   44 47   20/  8/ 11 1019.3R
LEWISETTA VA     0748   46 49   60/  8/ 10 1019.6R
RAPPAHANNOCK LGT 0748           40/  7/  8 1020.0F
STINGRAY PT      0800   47      60/ 10/ 12 1020.1    1/ 2
YORK RVR RNG VA  0748   49      60/ 16/ 18 1018.9R
YORKTOWN VA      0748   49 52   60/ 12/ 13 1019.2R
JAMESTOWN VA     0800   47 52   30/  4/  6   N/A     0
DOMINION TERM VA 0748   49      30/  4/  6 1019.3R
KIPTOPEKE VA     0748      51   20/  4/  6   N/A
CHES BAY BRIDGE  0748   51 54   50/ 11/ 12 1018.9R
CAPE HENRY VA    0748   51      40/ 13/ 16   N/A
WILLOUBY STN VA  0748   50      30/  9/ 10 1020.1R
S CRANEY ISL VA  0748   50      40/  6/  9 1019.0R
CAPE HENRY BUOY  0742      56                N/A     4/ 5   2/11
1ST LANDING BUOY 0800   51 54              1019.1    2/ 3
CAPE CHARLES BUO 0756      55                N/A     3/ 6
OFFSHORE WE BUOY 0751      56                N/A     4/ 6
64NM E OF VA BCH 0750   55 60   50/ 17/ 19 1017.2F   6/ 8   3/ 8
DUCK PIER NC     0748   53 54   50/ 10/ 13 1018.5R
44100 DUCK FRF   0735      56                N/A     5/ 6   2/11
OREGON INLET NC  0736   53 56   20/ 10/ 14 1018.1R
HATTERAS NC      0748   53 60   30/ 11/ 15 1017.0F
DIAMOND SHLS NC  0750   60 76   30/ 17/ 19 1016.5F   5/ 9   3/ 9
CAPE LOOKOUT NC  0800   52      20/ 15/ 20 1016.2R
$$




USA.gov is the U.S. government's official web portal to all federal, state and local government web resources and services.